Total_Precipitation_Accumulation
2.84 3.00 2.89 2.82 2.81 2.75 3.18 3.64 3.89 3.61 3.25 3.02 2.75 2.65 2.80 3.00 3.16 2.77 2.63 2.75 2.59 2.43 2.20 2.04 2.02 2.15 2.36 2.59 2.76 2.94 3.15 3.55 4.00 4.17 4.37 4.89 5.45 5.84
2.94 2.95 2.83 2.78 2.92 2.82 2.95 3.29 3.59 3.81 3.44 2.84 2.66 2.49 2.52 2.37 2.65 2.34 2.41 2.63 2.41 2.26 2.08 1.99 1.92 1.97 2.06 2.17 2.30 2.34 2.40 2.53 2.79 3.05 3.08 3.32 3.81 4.28
3.01 3.00 3.05 3.19 3.14 3.01 3.10 3.20 3.42 3.74 3.57 2.94 2.81 2.75 2.60 2.37 2.37 2.27 2.23 2.34 2.35 2.47 2.27 2.05 1.85 1.77 1.84 1.92 1.99 2.09 2.21 2.28 2.34 2.51 2.61 2.67 2.80 3.04
3.04 3.36 3.27 3.37 3.31 3.13 3.26 3.21 3.36 3.74 3.55 3.15 3.09 3.08 3.00 2.75 2.62 2.40 2.14 2.13 2.29 2.61 2.38 2.18 1.96 1.84 1.84 1.87 1.91 1.89 1.91 1.98 2.06 2.17 2.21 2.25 2.39 2.56
3.00 3.11 3.18 3.48 3.33 3.25 3.19 3.15 3.29 3.49 3.65 3.30 3.14 3.36 3.19 2.87 2.78 2.44 2.20 2.33 2.10 2.29 2.31 2.29 2.17 2.00 1.91 1.82 1.88 1.88 1.84 1.80 1.84 1.96 2.10 2.24 2.32 2.32
2.94 2.89 2.99 3.24 3.36 3.42 3.20 3.20 3.37 3.48 3.57 3.42 3.23 3.35 3.36 3.26 3.09 2.79 2.68 2.52 2.34 2.18 2.32 2.30 2.27 2.09 1.91 1.77 1.81 1.84 1.82 1.83 1.79 1.76 1.78 1.86 1.95 2.01
2.71 2.62 2.63 2.91 3.17 3.27 2.94 3.04 3.26 3.27 3.26 3.27 3.23 3.32 3.36 3.52 3.32 3.00 2.76 2.63 2.40 2.22 2.30 2.19 2.22 2.08 1.97 1.93 1.91 1.82 1.63 1.60 1.61 1.60 1.62 1.71 1.74 1.76
2.74 2.66 2.55 2.49 2.51 2.67 2.78 2.93 3.10 3.09 3.09 3.28 3.41 3.47 3.47 3.55 3.56 3.32 3.00 2.78 2.53 2.29 2.47 2.45 2.42 2.39 2.12 1.85 1.91 1.84 1.65 1.54 1.51 1.44 1.44 1.51 1.60 1.64
2.69 2.65 2.29 2.07 2.22 2.15 2.40 2.55 2.61 2.70 2.82 3.08 3.22 3.27 3.43 3.61 3.76 3.44 3.23 3.02 2.74 2.51 2.61 2.43 2.36 2.39 2.25 2.08 2.16 1.92 1.80 1.65 1.56 1.54 1.53 1.46 1.43 1.48
2.40 2.43 2.35 2.20 2.19 2.34 2.34 2.23 2.12 2.18 2.41 2.45 2.56 2.84 3.11 3.37 3.63 3.53 3.48 3.17 2.81 2.58 2.59 2.40 2.24 2.25 2.28 2.29 2.29 2.05 1.84 1.70 1.54 1.49 1.52 1.45 1.41 1.46
2.22 2.23 2.25 2.16 2.39 2.41 2.28 2.21 2.19 2.16 2.25 2.37 2.36 2.50 2.76 2.92 3.11 3.28 3.28 3.17 2.86 2.67 2.68 2.64 2.40 2.35 2.32 2.25 2.12 2.11 1.91 1.72 1.60 1.52 1.48 1.47 1.51 1.52
2.26 2.26 2.33 2.24 2.34 2.26 2.13 2.19 2.12 2.09 2.19 2.20 2.19 2.20 2.27 2.60 2.99 2.84 2.94 3.05 2.83 2.53 2.32 2.45 2.46 2.59 2.50 2.16 1.95 1.85 1.80 1.83 1.79 1.65 1.55 1.53 1.64 1.53
2.41 2.33 2.34 2.38 2.09 2.03 1.96 1.93 1.96 2.04 2.16 2.04 1.94 1.96 2.08 2.26 2.50 2.59 2.62 2.64 2.62 2.33 2.11 2.23 2.23 2.36 2.32 2.06 1.95 1.85 1.71 1.65 1.61 1.61 1.65 1.69 1.70 1.58
2.44 2.49 2.53 2.43 2.00 1.82 1.66 1.62 1.74 1.74 1.78 1.85 1.84 1.83 1.89 2.03 2.22 2.38 2.50 2.59 2.53 2.36 2.35 2.42 2.26 2.19 2.17 1.99 1.86 1.81 1.79 1.73 1.69 1.62 1.59 1.88 1.89 1.85
2.26 2.39 2.23 2.08 1.85 1.60 1.54 1.56 1.60 1.54 1.64 1.79 1.82 1.78 1.77 1.88 2.17 2.54 2.75 2.88 2.80 2.42 2.30 2.39 2.42 2.39 2.40 2.14 1.89 1.75 1.75 1.72 1.68 1.76 1.73 1.79 1.84 1.85
2.04 2.13 2.10 2.03 1.92 1.76 1.67 1.58 1.50 1.57 1.67 1.73 1.84 1.97 2.10 2.20 2.32 2.45 2.66 2.76 2.80 2.49 2.26 2.27 2.33 2.47 2.38 2.14 2.07 1.89 1.70 1.66 1.68 1.83 1.87 1.85 1.95 2.00
1.99 2.01 2.04 2.13 2.15 2.09 2.00 1.89 1.83 1.84 1.85 1.82 1.95 2.09 2.11 2.14 2.18 2.34 2.53 2.61 2.49 2.26 2.11 2.08 2.26 2.38 2.41 2.39 2.25 1.93 1.76 1.63 1.65 1.88 2.12 2.10 2.00 1.95
1.95 1.95 2.11 2.19 2.23 2.24 2.23 2.08 1.95 1.84 1.80 1.89 1.94 2.00 2.07 2.11 2.14 2.29 2.47 2.50 2.34 2.18 2.16 2.04 2.15 2.42 2.53 2.40 2.09 1.93 1.86 1.75 1.71 1.90 2.06 2.12 2.06 1.89
1.68 1.79 2.00 2.05 2.09 2.12 2.12 2.01 1.94 1.90 1.92 2.01 2.11 2.14 2.18 2.18 2.19 2.24 2.37 2.44 2.37 2.23 2.15 2.15 2.15 2.31 2.40 2.11 1.71 1.62 1.83 1.90 1.97 2.04 2.10 2.07 1.98 1.80
1.40 1.55 1.71 1.88 2.00 2.11 2.17 2.15 2.08 2.05 2.03 2.01 2.12 2.20 2.31 2.38 2.34 2.28 2.35 2.44 2.42 2.36 2.30 2.25 2.22 2.20 2.24 2.15 1.90 1.67 1.72 1.95 2.12 2.13 2.07 2.11 2.06 2.00
1.34 1.38 1.49 1.72 1.98 2.13 2.23 2.31 2.32 2.25 2.10 2.07 2.13 2.23 2.30 2.42 2.41 2.31 2.34 2.52 2.52 2.42 2.22 2.01 2.03 2.30 2.44 2.58 2.35 1.80 1.63 1.77 1.95 2.09 2.11 2.17 2.10 2.04
1.36 1.40 1.49 1.64 1.85 2.08 2.17 2.16 2.20 2.15 2.12 2.11 2.09 2.18 2.26 2.34 2.35 2.35 2.38 2.49 2.47 2.37 2.21 2.12 2.29 2.55 2.61 2.57 2.26 1.93 1.79 1.77 1.88 2.04 2.06 2.01 1.94 1.86
1.56 1.50 1.49 1.55 1.71 1.87 1.97 2.02 2.07 2.06 2.03 2.06 2.06 2.09 2.17 2.27 2.38 2.42 2.38 2.43 2.48 2.49 2.56 2.51 2.49 2.52 2.50 2.45 2.35 2.14 1.95 1.90 1.95 2.00 1.88 1.80 1.65 1.53